Tracking 25995 objects as of 19-Aug-2022
HD Live streaming from Space Station
objects crossing your sky now

THOR ABLESTAR DEB

Track THOR ABLESTAR DEB now!
10-day predictions


NORAD ID: 408
Int'l Code: 1961-015EH
Perigee: 936.7 km
Apogee: 1,038.6 km
Inclination: 66.8 °
Period: 104.7 minutes
Semi major axis: 7358 km
RCS: 0.1296 m2 (medium)
Launch date: June 29, 1961
Source: United States (US)
Launch site: AIR FORCE EASTERN TEST RANGE (AFETR)

Note: This is SATELLITE DEBRIS
aabbcc
Your satellite tracking list
Your tracking list is empty




NASA's NSSDC Master Catalog

Two Line Element Set (TLE):
1   408U 61015EH  22231.23166553  .00000076  00000-0  15298-3 0  9997
2   408  66.7851 201.4286 0069221 344.6952 118.4653 13.75323042113837
Source of the keplerian elements: AFSPC